STARLINK-2474

Last updated on Sat May 08 2021 00:02:04 GMT+0000 (Coordinated Universal Time)

1 48132U 21027AS 21127.58334491 .00057138 00000-0 40865-3 0 9990 2 48132 53.0471 191.7283 0002471 25.0813 286.2478 15.73200561 1776

Satellite not in orbit